Regional Weather Roundup
Issued by NWS

Home | Current Version | Previous Version | Graphics & Text | Print | Product List | Glossary On
Versions: 1 2 3 4 5 6 7 8 9 10 11 12 13 14 15 16 17 18 19 20 21 22 23 24 25 26 27 28 29 30 31 32 33 34 35 36 37 38 39 40 41 42 43 44 45 46 47 48 49
000
ASUS45 KBOU 230207
RWRCO

WEATHER ROUNDUP FOR COLORADO
NATIONAL WEATHER SERVICE DENVER/BOULDER CO
800 PM MDT TUE JUL 22 2014

NOTE: "FAIR" INDICATES FEW OR NO CLOUDS BELOW 12000 FEET WITH NO
SIGNIFICANT WEATHER AND/OR OBSTRUCTIONS TO VISIBILITY.

COZ001>005-013-030-031-230300-
...NORTHWEST COLORADO...

CITY           SKY/WX    TMP DP  RH WIND       PRES   REMARKS
CRAIG          FAIR      88  31  13 NE3       30.30R
HAYDEN         FAIR      84  30  14 E5        30.34R
MEEKER         FAIR      86  28  12 NE6       30.30R
MOUNT WERNER   NOT AVBL
STEAMBOAT SPGS FAIR      84  36  18 CALM      30.37S
WALDEN         FAIR      73  32  21 N5        30.50S
$$

COZ006>008-011-230300-
...WEST CENTRAL VALLEYS...

CITY           SKY/WX    TMP DP  RH WIND       PRES   REMARKS
GRAND JUNCTION FAIR      92  33  12 NW6       30.13S
MONTROSE       FAIR      92  35  13 W5        30.23S
EAGLE          FAIR      90  30  12 N12       30.32R
RIFLE          FAIR      96  15   5 CALM      30.19F
DELTA          FAIR      98  24   7 SW7       30.16S
NUCLA          FAIR      91  19   7 NE8       30.26R
$$

COZ017>023-064>068-230300-
...SOUTHWEST COLORADO...

CITY           SKY/WX    TMP DP  RH WIND       PRES   REMARKS
DURANGO        FAIR      88  28  11 E9G26     30.31R
CORTEZ         FAIR      86  35  16 S8        30.23R
PAGOSA SPRINGS FAIR      78  28  15 CALM      30.45R
TELLURIDE      FAIR      75  30  19 E3        30.55S
WOLF CREEK PAS NOT AVBL
$$

COZ009-010-012-014-032>034-037-058>063-230300-
...CENTRAL COLORADO...

CITY           SKY/WX    TMP DP  RH WIND       PRES   REMARKS
ASPEN          FAIR      74  31  20 CALM      30.42R
BUENA VISTA    FAIR      78  38  23 SE7       30.49R
COPPER MTN     FAIR      63  34  34 E13G18    30.85S
BERTHOUD PASS  FAIR      52  37  58 E24       30.92S
COTTONWOOD PAS FAIR      73  32  21 S12G17    30.66R
GUNNISON       FAIR      79  32  18 NW12      30.42S
KREMMLING      FAIR      81  18   9 NW3       30.42R
LEADVILLE      FAIR      68  32  26 VRB5      30.65R
MONARCH PASS   FAIR      61  36  39 NE18      30.93S
SALIDA         FAIR      82  40  23 SE16G28   30.50R
SUNLIGHT       FAIR      70  21  16 CALM      30.74S
WILKERSON PASS MOCLDY    57  32  38 N20G33    30.83S
$$

COZ069>075-230300-
...SAN LUIS VALLEY/SANGRE DE CRISTO MOUNTAINS...

CITY           SKY/WX    TMP DP  RH WIND       PRES   REMARKS
ALAMOSA        FAIR      78  43  28 E13       30.43R
LA VETA PASS   FAIR      63  32  31 E20G25    30.70R
SAGUACHE       FAIR      79  43  27 SE10      30.46R
$$

COZ035-036-038>040-230300-
...NORTHERN COLORADO FRONT RANGE...

CITY           SKY/WX    TMP DP  RH WIND       PRES   REMARKS
DENVER INTL AP FAIR      86  48  26 SE9       30.28R
DMNS CITY PARK   N/A     84  43  23 SW7       30.27S
AURORA         MOCLDY    85  48  28 SW9       30.31R
FRONT RANGE AP MOCLDY    88  50  27 E8        30.30S
ERIE MUNI ARPT FAIR      84  53  34 N5        30.25S
BOULDER MUN AP FAIR      86  52  30 N5        30.27S
CENTENNIAL     FAIR      83  40  21 W6        30.32S
BROOMFIELD     PTCLDY    90  48  24 CALM      30.31
FORT COLLINS   FAIR      90  55  31 NE6       30.25R
LONGMONT       FAIR      88  54  32 N9        30.27S
$$

COZ041-046-047-076>085-087-088-230300-
...PIKES PEAK/PALMER DIVIDE AND SOUTHERN FOOTHILLS...

CITY           SKY/WX    TMP DP  RH WIND       PRES   REMARKS
COLO. SPRINGS  MOCLDY    83  47  28 E5        30.37R
A. F. ACADEMY  FAIR      80  46  29 E5        30.40R
ELLICOTT       FAIR      79  53  40 S7        30.36R
FALCON         FAIR      75  53  45 CALM      30.44S
FORT CARSON    FAIR      83  49  31 SE8       30.34R
LIMON          FAIR      82  53  36 E12       30.30R
MONUMENT HILL  FAIR      72  52  49 S7        30.44S
TRINIDAD       FAIR      86  45  23 SE10      30.32R
$$

COZ042>045-048>051-090-091-230300-
...NORTHEAST COLORADO...

CITY           SKY/WX    TMP DP  RH WIND       PRES   REMARKS
GREELEY ARPT   FAIR      82  55  39 E9        30.24S
AKRON          FAIR      83  58  42 E12       30.26R
BURLINGTON     FAIR      85  61  44 E9        30.22R
WRAY             N/A     87  61  40 E9        30.19S
STERLING       FAIR      86  64  48 SE6       30.21S
HOLYOKE        FAIR      82  63  51 E8        30.21S
FORT MORGAN    FAIR      84  57  39 E9        30.25S
$$

COZ086-089-092>099-230300-
...SOUTHEAST COLORADO...

CITY           SKY/WX    TMP DP  RH WIND       PRES   REMARKS
PUEBLO         FAIR      90  52  27 SE10      30.22R
LA JUNTA       FAIR      88  55  32 E7        30.19R
LAMAR          FAIR      89  59  36 E9        30.14R
SPRINGFIELD      N/A     82  64  54 SE18      30.23R
$$


USA.gov is the U.S. government's official web portal to all federal, state and local government web resources and services.